OpenBCM V1.08-5-g2f4a (Linux)

Packet Radio Mailbox

IZ3LSV

[San Dona' di P. JN]

 Login: GUEST





  
I6KZR  > KEPLER   09.10.12 10:24l 992 Lines 26304 Bytes #999 (0) @ EU
BID : 1671_I6KZR
Read: GUEST
Subj: Old Istantrak Keplerians #356
Path: IZ3LSV<IV3SCP<SR1BSZ<F1OYP<F1OYP<VK4TUB<VK4WIT<EA5RQ<7M3TJZ<RV3DHC<
      HA3PG<SV1AAW<IK6PYS<I6DH
Sent: 1001221/2208Z @:I6DH.IMAR.ITA.EU #:5811 [Ascoli P.] FBB5.15c $:1671_I6KZR
From: I6KZR@I6DH.IMAR.ITA.EU
To  : KEPLER@EU

R.001221/2240z @:I6KZR.I6DH.#IMAR.ITA.EU $:1671_I6KZR Sally 3.1.064 

Messaggio inviato da: I6KZR@I6DH.IMAR.ITA.EU        

Satellite: AO-10
Catalog number: 14129
Epoch time:      100355.03296873
Element set:     727 
Inclination:       26.6859 deg
RA of node:       295.6920 deg
Eccentricity:    0.6002376
Arg of perigee:   110.7094 deg
Mean anomaly:     321.0331 deg
Mean motion:    2.05865208 rev/day
Decay rate:    5.1000E-007 rev/day^2
Epoch rev:           10378
Checksum:              286

Satellite: AO-40
Catalog number: 26609
Epoch time:      100354.78150683
Element set:     16 
Inclination:        6.2479 deg
RA of node:       237.0656 deg
Eccentricity:    0.8128421
Arg of perigee:   195.4843 deg
Mean anomaly:      97.8405 deg
Mean motion:    1.26866570 rev/day
Decay rate:   -2.9200E-006 rev/day^2
Epoch rev:              61
Checksum:              387

Satellite: FO-20
Catalog number: 20480
Epoch time:      100355.86959518
Element set:     277 
Inclination:       99.0749 deg
RA of node:        91.5094 deg
Eccentricity:    0.0541213
Arg of perigee:   352.8465 deg
Mean anomaly:       6.5126 deg
Mean motion:   12.83284554 rev/day
Decay rate:    5.0000E-008 rev/day^2
Epoch rev:           50922
Checksum:              312

Satellite: FO-29
Catalog number: 24278
Epoch time:      100355.73011057
Element set:     421 
Inclination:       98.5692 deg
RA of node:       238.9168 deg
Eccentricity:    0.0352030
Arg of perigee:   104.1176 deg
Mean anomaly:     259.9342 deg
Mean motion:   13.52751936 rev/day
Decay rate:    1.3999E-007 rev/day^2
Epoch rev:           21451
Checksum:              322

Satellite: MIR
Catalog number: 16609
Epoch time:      100356.48023942
Element set:     340 
Inclination:       51.6468 deg
RA of node:        16.9307 deg
Eccentricity:    0.0015462
Arg of perigee:   140.0269 deg
Mean anomaly:     220.2572 deg
Mean motion:   15.84665395 rev/day
Decay rate:    1.0186E-003 rev/day^2
Epoch rev:           84864
Checksum:              300

Satellite: RS-12/13
Catalog number: 21089
Epoch time:      100355.69034230
Element set:     301 
Inclination:       82.9233 deg
RA of node:        47.4247 deg
Eccentricity:    0.0029011
Arg of perigee:   329.1853 deg
Mean anomaly:      30.7599 deg
Mean motion:   13.74240041 rev/day
Decay rate:    8.9000E-007 rev/day^2
Epoch rev:           49529
Checksum:              291

Satellite: RS-15
Catalog number: 23439
Epoch time:      100355.75377030
Element set:     516 
Inclination:       64.8173 deg
RA of node:       238.7573 deg
Eccentricity:    0.0167381
Arg of perigee:   257.3112 deg
Mean anomaly:     100.9053 deg
Mean motion:   11.27539112 rev/day
Decay rate:   -3.8999E-007 rev/day^2
Epoch rev:           24654
Checksum:              320

Satellite: UO-14
Catalog number: 20437
Epoch time:      100355.69910166
Element set:     585 
Inclination:       98.3869 deg
RA of node:        56.2846 deg
Eccentricity:    0.0011737
Arg of perigee:    26.6071 deg
Mean anomaly:     333.5711 deg
Mean motion:   14.30600844 rev/day
Decay rate:    2.8899E-006 rev/day^2
Epoch rev:           56953
Checksum:              337

Satellite: UO-15
Catalog number: 20438
Epoch time:      100355.67147283
Element set:     365 
Inclination:       98.3582 deg
RA of node:        49.1512 deg
Eccentricity:    0.0011206
Arg of perigee:    35.4409 deg
Mean anomaly:     324.7516 deg
Mean motion:   14.29703977 rev/day
Decay rate:    1.5699E-006 rev/day^2
Epoch rev:           56927
Checksum:              331

Satellite: AO-16
Catalog number: 20439
Epoch time:      100355.73880671
Element set:     380 
Inclination:       98.4279 deg
RA of node:        63.6160 deg
Eccentricity:    0.0012139
Arg of perigee:    28.9563 deg
Mean anomaly:     331.2294 deg
Mean motion:   14.30701553 rev/day
Decay rate:    3.0399E-006 rev/day^2
Epoch rev:           56956
Checksum:              322

Satellite: DO-17
Catalog number: 20440
Epoch time:      100356.28058670
Element set:     373 
Inclination:       98.4399 deg
RA of node:        66.4224 deg
Eccentricity:    0.0011998
Arg of perigee:    26.7663 deg
Mean anomaly:     333.4138 deg
Mean motion:   14.30904201 rev/day
Decay rate:    3.5299E-006 rev/day^2
Epoch rev:           56969
Checksum:              332

Satellite: WO-18
Catalog number: 20441
Epoch time:      100356.18802006
Element set:     387 
Inclination:       98.4381 deg
RA of node:        65.9534 deg
Eccentricity:    0.0012246
Arg of perigee:    29.8671 deg
Mean anomaly:     330.3211 deg
Mean motion:   14.30797273 rev/day
Decay rate:    3.2400E-006 rev/day^2
Epoch rev:           56967
Checksum:              303

Satellite: LO-19
Catalog number: 20442
Epoch time:      100355.76152385
Element set:     381 
Inclination:       98.4469 deg
RA of node:        67.3242 deg
Eccentricity:    0.0012865
Arg of perigee:    27.8842 deg
Mean anomaly:     332.3029 deg
Mean motion:   14.30939851 rev/day
Decay rate:    3.6700E-006 rev/day^2
Epoch rev:           56965
Checksum:              328

Satellite: AO-21
Catalog number: 21087
Epoch time:      100356.00400679
Element set:     239 
Inclination:       82.9406 deg
RA of node:       182.0433 deg
Eccentricity:    0.0034401
Arg of perigee:   293.9553 deg
Mean anomaly:      65.8001 deg
Mean motion:   13.74747564 rev/day
Decay rate:    8.8000E-007 rev/day^2
Epoch rev:           49639
Checksum:              304

Satellite: UO-22
Catalog number: 21575
Epoch time:      100356.20595701
Element set:     91 
Inclination:       98.1366 deg
RA of node:        13.9514 deg
Eccentricity:    0.0007902
Arg of perigee:     3.8825 deg
Mean anomaly:     356.2423 deg
Mean motion:   14.37959666 rev/day
Decay rate:    4.2100E-006 rev/day^2
Epoch rev:           49479
Checksum:              315

Satellite: KO-23
Catalog number: 22077
Epoch time:      100355.91042934
Element set:     3 
Inclination:       66.0865 deg
RA of node:       339.3634 deg
Eccentricity:    0.0015832
Arg of perigee:   275.6359 deg
Mean anomaly:      84.2854 deg
Mean motion:   12.86356675 rev/day
Decay rate:   -3.7000E-007 rev/day^2
Epoch rev:           39273
Checksum:              320

Satellite: KO-25
Catalog number: 22828
Epoch time:      100356.20510253
Element set:     840 
Inclination:       98.3797 deg
RA of node:        46.9567 deg
Eccentricity:    0.0011067
Arg of perigee:    52.8296 deg
Mean anomaly:     307.3895 deg
Mean motion:   14.28882912 rev/day
Decay rate:    3.1800E-006 rev/day^2
Epoch rev:           34537
Checksum:              329

Satellite: IO-26
Catalog number: 22826
Epoch time:      100356.15154824
Element set:     858 
Inclination:       98.3839 deg
RA of node:        46.7107 deg
Eccentricity:    0.0009833
Arg of perigee:    70.1347 deg
Mean anomaly:     290.0889 deg
Mean motion:   14.28466510 rev/day
Decay rate:    3.1600E-006 rev/day^2
Epoch rev:           37719
Checksum:              436

Satellite: AO-27
Catalog number: 22825
Epoch time:      100356.29511818
Element set:     866 
Inclination:       98.3809 deg
RA of node:        46.1342 deg
Eccentricity:    0.0009513
Arg of perigee:    71.1015 deg
Mean anomaly:     289.1197 deg
Mean motion:   14.28305935 rev/day
Decay rate:    2.1700E-006 rev/day^2
Epoch rev:           37718
Checksum:              317

Satellite: MO-30
Catalog number: 24305
Epoch time:      100354.86417993
Element set:     475 
Inclination:       82.9352 deg
RA of node:       127.3768 deg
Eccentricity:    0.0028941
Arg of perigee:   243.6962 deg
Mean anomaly:     116.1217 deg
Mean motion:   13.73263596 rev/day
Decay rate:    2.0400E-006 rev/day^2
Epoch rev:           21495
Checksum:              415

Satellite: TO-31
Catalog number: 25396
Epoch time:      100356.24283672
Element set:     429 
Inclination:       98.7055 deg
RA of node:        69.6851 deg
Eccentricity:    0.0001859
Arg of perigee:   261.7769 deg
Mean anomaly:      98.3200 deg
Mean motion:   14.22857867 rev/day
Decay rate:   -4.4000E-007 rev/day^2
Epoch rev:           12725
Checksum:              337

Satellite: GO-32
Catalog number: 25397
Epoch time:      100355.93318352
Element set:     382 
Inclination:       98.7023 deg
RA of node:        69.0470 deg
Eccentricity:    0.0000619
Arg of perigee:   227.7192 deg
Mean anomaly:     132.3934 deg
Mean motion:   14.22516809 rev/day
Decay rate:    1.4500E-006 rev/day^2
Epoch rev:           12721
Checksum:              295

Satellite: SO-33
Catalog number: 25509
Epoch time:      100355.83394601
Element set:     200 
Inclination:       31.4474 deg
RA of node:       285.5101 deg
Eccentricity:    0.0363662
Arg of perigee:   258.1301 deg
Mean anomaly:      97.8335 deg
Mean motion:   14.25298546 rev/day
Decay rate:    9.2600E-006 rev/day^2
Epoch rev:           11247
Checksum:              294

Satellite: PO-34
Catalog number: 25520
Epoch time:      100356.19862206
Element set:     258 
Inclination:       28.4619 deg
RA of node:        54.2589 deg
Eccentricity:    0.0007024
Arg of perigee:   116.6456 deg
Mean anomaly:     243.4949 deg
Mean motion:   15.07203828 rev/day
Decay rate:    3.6869E-005 rev/day^2
Epoch rev:           11811
Checksum:              426

Satellite: SO-35
Catalog number: 25636
Epoch time:      100356.30570266
Element set:     281 
Inclination:       96.4508 deg
RA of node:       155.0303 deg
Eccentricity:    0.0151034
Arg of perigee:   310.3310 deg
Mean anomaly:      48.4786 deg
Mean motion:   14.41615958 rev/day
Decay rate:    7.2299E-006 rev/day^2
Epoch rev:            9604
Checksum:              301

